Index of /20260504/WXO-DD/model_gdps/15km/00/082
Name Last modified Size Description
Parent Directory -
20260504T00Z_MSC_GDPS_AirTemp_AGL-120m_LatLon0.15_PT082H.grib2 2026-05-04 04:09 901K
20260504T00Z_MSC_GDPS_AirTemp_AGL-2m_LatLon0.15_PT082H.grib2 2026-05-04 04:09 1.0M
20260504T00Z_MSC_GDPS_AirTemp_AGL-40m_LatLon0.15_PT082H.grib2 2026-05-04 04:09 803K
20260504T00Z_MSC_GDPS_AirTemp_AGL-80m_LatLon0.15_PT082H.grib2 2026-05-04 04:09 909K
20260504T00Z_MSC_GDPS_Albedo_Sfc_LatLon0.15_PT082H.grib2 2026-05-04 04:09 239K
20260504T00Z_MSC_GDPS_ConvectivePrecip-Accum_Sfc_LatLon0.15_PT082H.grib2 2026-05-04 04:09 3.4M
20260504T00Z_MSC_GDPS_DewPointDepression_AGL-2m_LatLon0.15_PT082H.grib2 2026-05-04 04:09 760K
20260504T00Z_MSC_GDPS_DewPoint_AGL-2m_LatLon0.15_PT082H.grib2 2026-05-04 04:09 612K
20260504T00Z_MSC_GDPS_DownwardLongwaveRadiationFlux-Accum_Sfc_LatLon0.15_PT082H.grib2 2026-05-04 04:09 692K
20260504T00Z_MSC_GDPS_DownwardShortwaveRadiationFlux-Accum_Sfc_LatLon0.15_PT082H.grib2 2026-05-04 04:09 901K
20260504T00Z_MSC_GDPS_FreezingRain-Accum1h_Sfc_LatLon0.15_PT082H.grib2 2026-05-04 04:09 41K
20260504T00Z_MSC_GDPS_FreezingRain-Accum_Sfc_LatLon0.15_PT082H.grib2 2026-05-04 04:09 277K
20260504T00Z_MSC_GDPS_IcePellets-Accum1h_Sfc_LatLon0.15_PT082H.grib2 2026-05-04 04:09 7.0K
20260504T00Z_MSC_GDPS_IcePellets-Accum_Sfc_LatLon0.15_PT082H.grib2 2026-05-04 04:09 98K
20260504T00Z_MSC_GDPS_LatentHeatNetFlux_Sfc_LatLon0.15_PT082H.grib2 2026-05-04 04:09 730K
20260504T00Z_MSC_GDPS_NetLongwaveRadiationFlux-Accum_Sfc_LatLon0.15_PT082H.grib2 2026-05-04 04:09 924K
20260504T00Z_MSC_GDPS_NetShortwaveRadiationFlux-Accum_Sfc_LatLon0.15_PT082H.grib2 2026-05-04 04:09 884K
20260504T00Z_MSC_GDPS_O3MixingRatio_Sfc_LatLon0.15_PT082H.grib2 2026-05-04 04:53 1.9M
20260504T00Z_MSC_GDPS_O3_EAtm_LatLon0.15_PT082H.grib2 2026-05-04 04:53 2.4M
20260504T00Z_MSC_GDPS_PlanetaryBoundaryLayerHeight_Sfc_LatLon0.15_PT082H.grib2 2026-05-04 04:09 2.5M
20260504T00Z_MSC_GDPS_Precip-Accum1h_Sfc_LatLon0.15_PT082H.grib2 2026-05-04 04:09 3.3M
20260504T00Z_MSC_GDPS_Precip-Accum_Sfc_LatLon0.15_PT082H.grib2 2026-05-04 04:09 4.9M
20260504T00Z_MSC_GDPS_PrecipRate_Sfc_LatLon0.15_PT082H.grib2 2026-05-04 04:09 3.2M
20260504T00Z_MSC_GDPS_Pressure_MSL_LatLon0.15_PT082H.grib2 2026-05-04 04:09 718K
20260504T00Z_MSC_GDPS_Pressure_Sfc_LatLon0.15_PT082H.grib2 2026-05-04 04:09 1.1M
20260504T00Z_MSC_GDPS_RadiativeTemp_Sfc_LatLon0.15_PT082H.grib2 2026-05-04 04:09 502K
20260504T00Z_MSC_GDPS_Rain-Accum1h_Sfc_LatLon0.15_PT082H.grib2 2026-05-04 04:09 1.7M
20260504T00Z_MSC_GDPS_Rain-Accum_Sfc_LatLon0.15_PT082H.grib2 2026-05-04 04:09 3.8M
20260504T00Z_MSC_GDPS_RelativeHumidity_AGL-2m_LatLon0.15_PT082H.grib2 2026-05-04 04:09 1.0M
20260504T00Z_MSC_GDPS_Runoff-Accum_Sfc_LatLon0.15_PT082H.grib2 2026-05-04 04:09 117K
20260504T00Z_MSC_GDPS_SensibleHeatNetFlux_Sfc_LatLon0.15_PT082H.grib2 2026-05-04 04:09 489K
20260504T00Z_MSC_GDPS_Snow-Accum1h_Sfc_LatLon0.15_PT082H.grib2 2026-05-04 04:09 1.1M
20260504T00Z_MSC_GDPS_Snow-Accum_Sfc_LatLon0.15_PT082H.grib2 2026-05-04 04:09 2.0M
20260504T00Z_MSC_GDPS_SnowDepth_Sfc_LatLon0.15_PT082H.grib2 2026-05-04 04:09 1.7M
20260504T00Z_MSC_GDPS_SoilTemp_DBS-0to10cm_LatLon0.15_PT082H.grib2 2026-05-04 04:09 512K
20260504T00Z_MSC_GDPS_SoilTemp_Sfc_LatLon0.15_PT082H.grib2 2026-05-04 04:09 593K
20260504T00Z_MSC_GDPS_SoilVolumetricWaterContent_DBS-0to10cm_LatLon0.15_PT082H.grib2 2026-05-04 04:09 594K
20260504T00Z_MSC_GDPS_SoilVolumetricWaterContent_DBS-0to1cm_LatLon0.15_PT082H.grib2 2026-05-04 04:09 654K
20260504T00Z_MSC_GDPS_SpecificHumidity_AGL-120m_LatLon0.15_PT082H.grib2 2026-05-04 04:09 1.1M
20260504T00Z_MSC_GDPS_SpecificHumidity_AGL-2m_LatLon0.15_PT082H.grib2 2026-05-04 04:09 1.2M
20260504T00Z_MSC_GDPS_SpecificHumidity_AGL-40m_LatLon0.15_PT082H.grib2 2026-05-04 04:09 1.1M
20260504T00Z_MSC_GDPS_SpecificHumidity_AGL-80m_LatLon0.15_PT082H.grib2 2026-05-04 04:09 1.1M
20260504T00Z_MSC_GDPS_SpecificHumidity_Sfc_LatLon0.15_PT082H.grib2 2026-05-04 04:09 684K
20260504T00Z_MSC_GDPS_TotalCloudCover_Sfc_LatLon0.15_PT082H.grib2 2026-05-04 04:09 837K
20260504T00Z_MSC_GDPS_UVIndex-ClearSky_Sfc_LatLon0.15_PT082H.grib2 2026-05-04 04:53 1.1M
20260504T00Z_MSC_GDPS_UVIndex_Sfc_LatLon0.15_PT082H.grib2 2026-05-04 04:53 1.5M
20260504T00Z_MSC_GDPS_UpwardLongwaveRadiationFlux_NTAtm_LatLon0.15_PT082H.grib2 2026-05-04 04:09 840K
20260504T00Z_MSC_GDPS_WindDir_AGL-10m_LatLon0.15_PT082H.grib2 2026-05-04 04:09 1.3M
20260504T00Z_MSC_GDPS_WindDir_AGL-120m_LatLon0.15_PT082H.grib2 2026-05-04 04:09 1.3M
20260504T00Z_MSC_GDPS_WindDir_AGL-40m_LatLon0.15_PT082H.grib2 2026-05-04 04:09 1.4M
20260504T00Z_MSC_GDPS_WindDir_AGL-80m_LatLon0.15_PT082H.grib2 2026-05-04 04:09 1.3M
20260504T00Z_MSC_GDPS_WindDir_IsbL-0700_LatLon0.15_PT082H.grib2 2026-05-04 04:09 1.6M
20260504T00Z_MSC_GDPS_WindGust-Max_AGL-10m_LatLon0.15_PT082H.grib2 2026-05-04 04:09 1.8M
20260504T00Z_MSC_GDPS_WindGust-Min_AGL-10m_LatLon0.15_PT082H.grib2 2026-05-04 04:09 2.2M
20260504T00Z_MSC_GDPS_WindGust_AGL-10m_LatLon0.15_PT082H.grib2 2026-05-04 04:09 2.2M
20260504T00Z_MSC_GDPS_WindSpeed_AGL-10m_LatLon0.15_PT082H.grib2 2026-05-04 04:09 1.1M
20260504T00Z_MSC_GDPS_WindSpeed_AGL-120m_LatLon0.15_PT082H.grib2 2026-05-04 04:09 1.2M
20260504T00Z_MSC_GDPS_WindSpeed_AGL-40m_LatLon0.15_PT082H.grib2 2026-05-04 04:09 1.2M
20260504T00Z_MSC_GDPS_WindSpeed_AGL-80m_LatLon0.15_PT082H.grib2 2026-05-04 04:09 1.2M
20260504T00Z_MSC_GDPS_WindSpeed_IsbL-0700_LatLon0.15_PT082H.grib2 2026-05-04 04:09 1.5M
20260504T00Z_MSC_GDPS_WindU_AGL-10m_LatLon0.15_PT082H.grib2 2026-05-04 04:09 1.6M
20260504T00Z_MSC_GDPS_WindU_AGL-120m_LatLon0.15_PT082H.grib2 2026-05-04 04:09 957K
20260504T00Z_MSC_GDPS_WindU_AGL-40m_LatLon0.15_PT082H.grib2 2026-05-04 04:09 954K
20260504T00Z_MSC_GDPS_WindU_AGL-80m_LatLon0.15_PT082H.grib2 2026-05-04 04:09 957K
20260504T00Z_MSC_GDPS_WindU_IsbL-0700_LatLon0.15_PT082H.grib2 2026-05-04 04:09 1.2M
20260504T00Z_MSC_GDPS_WindV_AGL-10m_LatLon0.15_PT082H.grib2 2026-05-04 04:09 1.6M
20260504T00Z_MSC_GDPS_WindV_AGL-120m_LatLon0.15_PT082H.grib2 2026-05-04 04:09 959K
20260504T00Z_MSC_GDPS_WindV_AGL-40m_LatLon0.15_PT082H.grib2 2026-05-04 04:09 956K
20260504T00Z_MSC_GDPS_WindV_AGL-80m_LatLon0.15_PT082H.grib2 2026-05-04 04:09 960K
20260504T00Z_MSC_GDPS_WindV_IsbL-0700_LatLon0.15_PT082H.grib2 2026-05-04 04:09 1.2M